Location: Poughquag
(41.6090°N, 73.6820°W)
Time: 01:27:07
(UTC-04:00)

Transit 4A - Pass Details

Date: 31 May 2020
Orbit: 866 x 978 km, 66.8° (Epoch: 06 July)

Event Time Altitude Azimuth Distance (km) Brightness Sun altitude
Rises 03:16:22 0° 234° (SW) 3,439 - -18.2°
Reaches altitude 10° 03:19:01 10° 243° (WSW) 2,510 - -17.9°
Exits shadow 03:21:02 21° 256° (WSW) 1,880 9.1 -17.7°
Maximum altitude 03:24:19 36° 310° (NW) 1,350 8.8 -17.3°
Drops below altitude 10° 03:29:46 10° 16° (NNE) 2,565 11.3 -16.7°
Sets 03:32:31 0° 25° (NNE) 3,524 12.5 -16.4°
